Weather History for LEVD - January, 2013

Change the Weather History Date:

Wednesday, January 23, 2013

  Actual Average Record
Temperature  
Mean Temperature 32 °F -  
Max Temperature 41 °F - - ()
Min Temperature 24 °F - - ()
Degree Days  
Heating Degree Days 32    
Moisture  
Dew Point 33 °F    
Average Humidity 95    
Maximum Humidity 100    
Minimum Humidity 81    
Precipitation  
Precipitation 0.00 in - - ()
Sea Level Pressure  
Sea Level Pressure 29.92 in    
Wind  
Wind Speed 15 mph ()    
Max Wind Speed 24 mph    
Max Gust Speed -    
Visibility 5.4 miles    
Events Fog    
T = Trace of Precipitation, MM = Missing Value Source: Averaged Metar Reports

Daily Weather History Graph

Daily Weather History Graph

Search for Another Location

Airport or City:

Trip Planner

Search our weather history database for the weather conditions in past years. The results will help you decide how hot, cold, wet, or windy it might be!

Date:

Astronomy

Jan. 23, 2013 Rise Set
Actual Time 8:39 AM CET 6:23 PM CET
Civil Twilight 8:09 AM CET 6:53 PM CET
Nautical Twilight 7:35 AM CET 7:27 PM CET
Astronomical Twilight 7:02 AM CET 8:00 PM CET
Moon 3:21 PM CET (1/23) 5:40 AM CET (1/23)
Length of Visible Light 10h 44m
Length of Day
9h 44m
Waxing Gibbous, 87% of the Moon is Illuminated
Jan 23
Waxing Gibbous
Jan 27
Full
Feb 3
Last Quarter
Feb 10
New
Feb 17
First Quarter

Hourly Weather History & Observations

Time (CET) Temp. Windchill Dew Point Humidity Pressure Visibility Wind Dir Wind Speed Gust Speed Precip Events Conditions
6:00 AM 30.2 °F 18.9 °F 28.4 °F 93% 29.86 in - WNW 16.1 mph - N/A   Clear
6:30 AM 28.4 °F 18.0 °F 26.6 °F 93% 29.86 in - West 12.7 mph - N/A   Clear
7:00 AM 28.4 °F 17.5 °F 26.6 °F 93% 29.86 in - West 13.8 mph - N/A   Clear
7:30 AM 26.6 °F 16.2 °F 24.8 °F 93% 29.89 in - WSW 11.5 mph - N/A   Clear
8:00 AM 24.8 °F 15.3 °F 24.8 °F 100% 29.89 in - West 9.2 mph - N/A   Clear
8:30 AM 28.4 °F 18.0 °F 26.6 °F 93% 29.89 in 6.2 mi West 12.7 mph - N/A   Scattered Clouds
9:00 AM 28.4 °F 17.0 °F 28.4 °F 100% 29.92 in 6.2 mi West 15.0 mph - N/A   Partly Cloudy
9:30 AM 28.4 °F 17.0 °F 28.4 °F 100% 29.92 in - West 15.0 mph - N/A   Clear
10:00 AM 30.2 °F 18.9 °F 30.2 °F 100% 29.95 in 6.2 mi West 16.1 mph - N/A   Partly Cloudy
10:30 AM 30.2 °F 18.5 °F 30.2 °F 100% 29.95 in 6.2 mi West 17.3 mph - N/A   Partly Cloudy
11:00 AM 33.8 °F 22.8 °F 32.0 °F 93% 29.98 in 6.2 mi West 18.4 mph - N/A   Partly Cloudy
11:30 AM 33.8 °F 22.8 °F 32.0 °F 93% 29.98 in 6.2 mi West 18.4 mph - N/A   Partly Cloudy
12:00 PM 35.6 °F 25.9 °F 33.8 °F 93% 30.01 in 6.2 mi West 16.1 mph - N/A   Partly Cloudy
12:30 PM 37.4 °F 27.8 °F 33.8 °F 87% 29.98 in 6.2 mi West 17.3 mph - N/A   Partly Cloudy
1:00 PM 37.4 °F 27.2 °F 35.6 °F 93% 29.98 in 6.2 mi West 19.6 mph - N/A   Partly Cloudy
2:00 PM 39.2 °F 28.7 °F 35.6 °F 87% 29.98 in 6.2 mi West 23.0 mph - N/A   Partly Cloudy
2:30 PM 39.2 °F 29.8 °F 35.6 °F 87% 29.98 in 6.2 mi West 18.4 mph - N/A   Scattered Clouds
3:00 PM 41.0 °F 31.9 °F 35.6 °F 81% 29.98 in 6.2 mi West 19.6 mph - N/A   Scattered Clouds
3:30 PM 41.0 °F 31.9 °F 35.6 °F 81% 29.95 in 6.2 mi West 19.6 mph - N/A   Scattered Clouds
4:00 PM 39.2 °F 29.0 °F 35.6 °F 87% 29.95 in 6.2 mi WSW 21.9 mph - N/A   Scattered Clouds
4:30 PM 39.2 °F 29.6 °F 35.6 °F 87% 29.95 in 6.2 mi West 19.6 mph - N/A   Scattered Clouds
6:30 PM 37.4 °F 27.8 °F 37.4 °F 100% 29.92 in 6.2 mi WSW 17.3 mph - N/A   Mostly Cloudy
7:00 PM 37.4 °F 27.8 °F 37.4 °F 100% 29.92 in 6.2 mi WSW 17.3 mph - N/A   Mostly Cloudy
7:30 PM 35.6 °F 24.8 °F 35.6 °F 100% 29.89 in 6.2 mi WSW 19.6 mph - N/A   Mostly Cloudy
8:00 PM 37.4 °F 27.2 °F 37.4 °F 100% 29.89 in 6.2 mi WSW 19.6 mph - N/A   Mostly Cloudy
8:30 PM 37.4 °F 27.2 °F 37.4 °F 100% 29.89 in 6.2 mi WSW 19.6 mph - N/A   Mostly Cloudy
9:00 PM 37.4 °F 27.5 °F 37.4 °F 100% 29.86 in 6.2 mi WSW 18.4 mph - N/A   Mostly Cloudy
9:30 PM 37.4 °F 27.5 °F 37.4 °F 100% 29.86 in 6.2 mi WSW 18.4 mph - N/A   Mostly Cloudy
10:00 PM 37.4 °F 27.2 °F 37.4 °F 100% 29.86 in 2.5 mi West 19.6 mph - N/A   Overcast
10:30 PM 37.4 °F 26.9 °F 37.4 °F 100% 29.86 in 0.4 mi West 20.7 mph - N/A Fog Fog
11:00 PM 39.2 °F 29.0 °F 39.2 °F 100% 29.83 in 0.4 mi West 21.9 mph - N/A Fog Fog
11:30 PM 41.0 °F 30.9 °F 41.0 °F 100% 29.83 in 0.4 mi West 24.2 mph - N/A Fog Fog